Regional Weather Roundup
Issued by NWS

Home | Current Version | Previous Version | Text Only | Print | Product List | Glossary Off
Versions: 1 2 3 4 5 6 7 8 9 10 11 12 13 14 15 16 17 18 19 20 21 22 23 24 25 26 27 28 29 30 31 32 33 34 35 36 37 38 39 40 41 42 43 44 45 46 47 48 49 50

000
ASUS43 KLSX 261507
RWRMO

WEATHER SUMMARY FOR MISSOURI
NATIONAL WEATHER SERVICE SPRINGFIELD MO
1000 AM CDT WED APR 26 2017

NOTE: "FAIR" INDICATES FEW OR NO CLOUDS BELOW 12,000 FEET WITH NO
       SIGNIFICANT WEATHER AND/OR OBSTRUCTIONS TO VISIBILITY.
       CURRENT SKY AND/OR WEATHER CONDITIONS ARE NOT AVAILABLE FOR
       CHILLICOTHE AND FARMINGTON.

MOZ001>031-035>038-043-044-053-054-261600-
...NORTHERN AND WESTERN MISSOURI...

CITY           SKY/WX    TMP DP  RH WIND       PRES   REMARKS
KANSAS CTY INT CLOUDY    41  37  86 N16       29.61F
KANSAS C DTWN  CLOUDY    44  39  82 N13G20    29.60F
LEE`S SUMMIT   CLOUDY    43  42  97 NW14      29.60S
ST JOSEPH      CLOUDY    41  38  89 NW12      29.65R
CHILLICOTHE      N/A     44  41  89 NW9G20    29.61R
KIRKSVILLE     CLOUDY    47  44  90 NW13      29.56R

$$
MOZ066>068-077>081-088>096-101>105-261600-
...SOUTHWEST MISSOURI...

CITY           SKY/WX    TMP DP  RH WIND       PRES   REMARKS
SPRINGFIELD    LGT RAIN  54  53  97 NW13      29.54R FOG
JOPLIN         TSTM      49  47  93 N14G24    29.56F
BRANSON        TSTM      55  55 100 SE10      29.55S

$$
MOZ032>034-039>042-045>050-055>058-069>072-261600-
...CENTRAL MISSOURI...

CITY           SKY/WX    TMP DP  RH WIND       PRES   REMARKS
COLUMBIA       CLOUDY    53  53 100 W12       29.54R FOG
JEFFERSON CITY CLOUDY    58  54  86 W8        29.55R
ROLLA          LGT RAIN  57  57 100 S10       29.55R
SEDALIA        CLOUDY    48  47  96 NW14G23   29.58R
WHITEMAN AFB   CLOUDY    45  45 100 NW9       29.57S FOG
OSAGE BEACH    RAIN      58  58 100 CALM      29.54F FOG

$$
MOZ051-052-059>065-261600-
...EAST CENTRAL MISSOURI...

CITY           SKY/WX    TMP DP  RH WIND       PRES   REMARKS
ST LOUIS INTL  CLOUDY    69  55  60 SW16      29.55R
SPIRIT OF STL  PTSUNNY   65  58  78 SW12G21   29.54R
ST CHARLES     PTSUNNY   67  56  67 SW18      29.53R

$$
MOZ072>076-082>087-097>100-106>115-261600-
...SOUTH CENTRAL AND SOUTHEAST MISSOURI...

CITY           SKY/WX    TMP DP  RH WIND       PRES   REMARKS
CAPE GIRARDEAU MOSUNNY   72  61  68 S16       29.57S
FARMINGTON     CLOUDY    71  61  70 S12       29.56R
POPLAR BLUFF   MOSUNNY   72  64  76 S15       29.57S
WEST PLAINS    TSTM      59  57  93 W10G20    29.62R FOG

$$



USA.gov is the U.S. government's official web portal to all federal, state and local government web resources and services.